Weather History for Northeast Philadelphia, PA

Change the Weather History Date:

Saturday, July 7, 2012

  Actual Average Record
Temperature  
Mean Temperature 90 °F -  
Max Temperature 100 °F 83 °F 102 °F (2010)
Min Temperature 79 °F 63 °F 55 °F (2001)
Cooling Degree Days 24    
Growing Degree Days 40 (Base 50)    
Moisture  
Dew Point 69 °F    
Average Humidity 56    
Maximum Humidity 72    
Minimum Humidity 33    
Precipitation  
Precipitation 0.00 in - - ()
Sea Level Pressure  
Sea Level Pressure 29.85 in    
Wind  
Wind Speed 6 mph (West)    
Max Wind Speed 14 mph    
Max Gust Speed 25 mph    
Visibility 10 miles    
Events Rain    
Averages and records for this station are not official NWS values.
T = Trace of Precipitation, MM = Missing Value Source: NWS Daily Summary

Daily Weather History Graph

Daily Weather History Graph

Search for Another Location

Airport:

Trip Planner

Search our weather history database for the weather conditions in past years. The results will help you decide how hot, cold, wet, or windy it might be!

Date:

Astronomy

Jul. 07, 2012 Rise Set
Actual Time 5:38 AM EDT 8:31 PM EDT
Civil Twilight 5:05 AM EDT 9:03 PM EDT
Nautical Twilight 4:24 AM EDT 9:44 PM EDT
Astronomical Twilight 3:37 AM EDT 10:31 PM EDT
Moon 10:49 PM EDT (7/7) 10:00 AM EDT (7/7)
Length of Visible Light 15h 58m
Length of Day
14h 53m
Waning Gibbous, 82% of the Moon is Illuminated
Jul 7
Waning Gibbous
Jul 10
Last Quarter
Jul 19
New
Jul 26
First Quarter
Aug 1
Full

Hourly Weather History & Observations

Time (EDT) Temp. Heat Index Dew Point Humidity Pressure Visibility Wind Dir Wind Speed Gust Speed Precip Events Conditions
12:54 AM 82.4 °F 86.3 °F 69.8 °F 66% 29.90 in 10.0 mi SSW 3.5 mph - N/A   Clear
1:54 AM 82.0 °F 86.3 °F 71.1 °F 69% 29.89 in 10.0 mi SSW 4.6 mph - N/A   Partly Cloudy
2:54 AM 82.9 °F 87.0 °F 70.0 °F 65% 29.87 in 10.0 mi SW 6.9 mph - N/A   Partly Cloudy
3:54 AM 81.0 °F 84.9 °F 71.1 °F 72% 29.87 in 10.0 mi WSW 8.1 mph - N/A   Clear
4:54 AM 81.0 °F 84.4 °F 70.0 °F 69% 29.88 in 10.0 mi WSW 5.8 mph - N/A   Clear
5:54 AM 79.0 °F - 69.1 °F 72% 29.89 in 10.0 mi WSW 6.9 mph - N/A   Clear
6:54 AM 81.0 °F 84.1 °F 69.1 °F 67% 29.88 in 10.0 mi West 4.6 mph - N/A   Clear
7:54 AM 82.9 °F 87.0 °F 70.0 °F 65% 29.90 in 10.0 mi West 5.8 mph - N/A   Clear
8:54 AM 87.1 °F 92.0 °F 70.0 °F 57% 29.89 in 10.0 mi NW 4.6 mph - N/A   Clear
9:54 AM 91.0 °F 95.6 °F 69.1 °F 48% 29.88 in 10.0 mi NW 6.9 mph - N/A   Clear
10:54 AM 93.9 °F 97.5 °F 66.9 °F 41% 29.87 in 10.0 mi West 10.4 mph - N/A   Clear
11:54 AM 96.1 °F 99.9 °F 66.9 °F 38% 29.87 in 10.0 mi West 12.7 mph 19.6 mph N/A   Clear
12:54 PM 99.0 °F 102.3 °F 64.9 °F 33% 29.86 in 10.0 mi West 12.7 mph 25.3 mph N/A   Clear
1:54 PM 99.0 °F 104.2 °F 68.0 °F 36% 29.85 in 10.0 mi WNW 8.1 mph - N/A   Clear
2:54 PM 99.0 °F 103.5 °F 66.9 °F 35% 29.83 in 10.0 mi West 8.1 mph - N/A   Clear
3:54 PM 100.0 °F 107.0 °F 69.1 °F 37% 29.80 in 10.0 mi WSW 8.1 mph - N/A   Clear
4:54 PM 98.1 °F 104.4 °F 69.1 °F 39% 29.80 in 10.0 mi West 6.9 mph - N/A   Clear
5:54 PM 96.1 °F 102.9 °F 70.0 °F 43% 29.80 in 10.0 mi WSW 11.5 mph - N/A   Clear
6:54 PM 95.0 °F 99.5 °F 68.0 °F 41% 29.81 in 10.0 mi WNW 9.2 mph - N/A   Clear
7:16 PM 84.2 °F 88.4 °F 69.8 °F 62% 29.86 in 10.0 mi NNW 13.8 mph 21.9 mph 0.00 in Rain Light Rain
7:54 PM 84.0 °F 89.0 °F 71.1 °F 65% 29.81 in 10.0 mi WNW 9.2 mph - 0.00 in Rain Light Rain
8:54 PM 82.0 °F 86.3 °F 71.1 °F 69% 29.83 in 10.0 mi Calm Calm - 0.00 in   Clear
9:54 PM 82.9 °F 87.5 °F 71.1 °F 67% 29.83 in 10.0 mi North 3.5 mph - N/A   Partly Cloudy
10:54 PM 81.0 °F 84.9 °F 71.1 °F 72% 29.83 in 10.0 mi Calm Calm - N/A   Clear
11:54 PM 80.1 °F 83.2 °F 70.0 °F 71% 29.83 in 10.0 mi NW 4.6 mph - N/A   Clear